Location: Newark
(31.5350°N, 35.0986°E)
Time: 09:26:17
(UTC+00:00)

Transit 4A - Pass Details

Date: 22 October 2019
Orbit: 868 x 976 km, 66.8° (Epoch: 12 November)

Event Time Altitude Azimuth Distance (km) Brightness Sun altitude
Rises 11:40:12 0° 329° (NNW) 3,516 10.8 36.4°
Reaches altitude 10° 11:42:45 10° 326° (NW) 2,558 10.2 36.0°
Maximum altitude 11:48:31 57° 249° (WSW) 1,021 9.5 35.2°
Drops below altitude 10° 11:54:10 10° 171° (S) 2,504 10.7 34.3°
Sets 11:56:39 0° 168° (SSE) 3,436 11.2 33.9°
